This demonstration page uses our WeatherBlox Daily Observations layout. Learn more.

Left ArrowRight Arrow

39.92423, -83.80882

Hourly Observations for January 22, 2017

Temp ( °F °C ) Dew Point ( °F °C ) Humidity (%) Winds ( mph kmh ) Pressure ( in mb ) Visibility ( mi km ) Precip ( " mm )
12:56 am 00:56 Mostly Cloudy 53 11.7 50 10 89 89 SSE 7 11 29.66 1004 10 16.0934 0 0
1:56 am 01:56 Partly Cloudy 49 9.4 47 8.3 93 93 SE 3 6 29.64 1004 7 11.26538 0 0
2:13 am 02:13 Mostly Clear with Mist and Fog 46 8 45 7 93 93 E 5 7 29.62 1003 1.5 2.41401 0 0
2:15 am 02:15 Clear with Mist and Fog 45 7 45 7 100 100 E 5 7 29.62 1003 0.75 1.207005 0 0
2:20 am 02:20 Clear with Fog 45 7 45 7 100 100 E 5 7 29.62 1003 0.25 0.402335 0 0
2:56 am 02:56 Clear with Fog 44 6.7 44 6.7 100 100 E 3 6 29.63 1004 0.5 0.80467 0 0
3:08 am 03:08 Clear with Fog 45 7 45 7 100 100 E 5 7 29.62 1003 0.25 0.402335 0 0
3:56 am 03:56 Clear with Fog 40 4.4 40 4.4 100 100 E 7 11 29.6 1002 0.25 0.402335 0 0
4:19 am 04:19 Mostly Cloudy with Fog 43 6 41 5 93 93 E 6 9 29.59 1002 0.25 0.402335 0 0
4:53 am 04:53 Mostly Cloudy with Fog 45 7 43 6 93 93 SE 3 6 29.59 1002 0.5 0.80467 0 0
4:56 am 04:56 Mostly Cloudy with Fog 43 6.1 43 6.1 100 100 SE 3 6 29.6 1003 0.5 0.80467 0 0
5:02 am 05:02 Mostly Cloudy with Mist and Fog 45 7 45 7 100 100 SE 5 7 29.59 1002 1 1.60934 0 0
5:11 am 05:11 Clear with Mist and Fog 45 7 45 7 100 100 ESE 5 7 29.59 1002 1.25 2.011675 0 0
5:14 am 05:14 Clear with Mist and Fog 46 8 45 7 93 93 ESE 5 7 29.59 1002 0.75 1.207005 0 0
5:22 am 05:22 Clear with Fog 45 7 43 6 93 93 E 5 7 29.59 1002 0.25 0.402335 0 0
5:32 am 05:32 Mostly Cloudy with Fog 43 6 43 6 100 100 E 3 6 29.59 1002 0.25 0.402335 0 0
5:56 am 05:56 Mostly Cloudy with Fog 42 5.6 42 5.6 100 100 ENE 6 9 29.6 1003 0.25 0.402335 0 0
6:35 am 06:35 Mostly Cloudy with Fog 41 5 39 4 93 93 N 8 13 29.65 1004 0.5 0.80467 0 0
6:56 am 06:56 Mostly Cloudy with Mist and Fog 45 7.2 45 7.2 100 100 N 8 13 29.62 1003 1.75 2.816345 0 0
6:58 am 06:58 Cloudy with Mist and Fog 45 7 45 7 100 100 N 8 13 29.62 1003 3 4.82802 0 0
7:23 am 07:23 Mostly Cloudy with Mist and Fog 45 7 45 7 100 100 E 3 6 29.62 1003 1.75 2.816345 0 0
7:35 am 07:35 Partly Cloudy with Mist and Fog 45 7 45 7 100 100 ENE 6 9 29.62 1003 0.75 1.207005 0 0
7:42 am 07:42 Mostly Clear with Fog 45 7 43 6 93 93 ENE 6 9 29.62 1003 0.25 0.402335 0 0
7:56 am 07:56 Mostly Cloudy with Fog 42 5.6 42 5.6 100 100 ENE 7 11 29.63 1004 0.25 0.402335 0 0
8:01 am 08:01 Mostly Cloudy with Mist and Fog 45 7 45 7 100 100 ENE 6 9 29.62 1003 0.75 1.207005 0 0
8:03 am 08:03 Mostly Cloudy with Mist and Fog 45 7 45 7 100 100 ENE 7 11 29.62 1003 1.5 2.41401 0 0
8:27 am 08:27 Mostly Cloudy with Mist and Fog 45 7 45 7 100 100 NNE 7 11 29.62 1003 1 1.60934 0 0
8:32 am 08:32 Partly Cloudy with Mist and Fog 45 7 45 7 100 100 NE 6 9 29.62 1003 2 3.21868 0 0
8:40 am 08:40 Partly Cloudy with Mist and Fog 45 7 45 7 100 100 ENE 6 9 29.62 1003 4 6.43736 0 0
8:56 am 08:56 Partly Cloudy with Mist and Fog 46 7.8 45 7.2 96 96 ENE 6 9 29.62 1003 3 4.82802 0 0
9:56 am 09:56 Sunny with Mist and Fog 50 10 50 10 100 100 ENE 7 11 29.61 1003 6 9.65604 0 0
10:56 am 10:56 Sunny 53 11.7 52 11.1 96 96 ENE 6 9 29.61 1003 7 11.26538 0 0
11:56 am 11:56 Sunny 58 14.4 53 11.7 84 84 E 12 19 29.57 1002 10 16.0934 0 0
12:56 pm 12:56 Sunny 60 15.6 52 11.1 75 75 E 10 17 29.52 1000 10 16.0934 0 0
1:56 pm 13:56 Sunny 59 15 51 10.6 75 75 ENE 10 17 29.49 999 10 16.0934 0 0
2:56 pm 14:56 Sunny 61 16.1 48 8.9 63 63 ENE 12 19 29.49 999 10 16.0934 0 0
3:56 pm 15:56 Sunny 60 15.6 49 9.4 67 67 NE 9 15 29.49 999 10 16.0934 0 0
4:56 pm 16:56 Mostly Sunny 58 14.4 48 8.9 70 70 NNE 12 19 29.48 998 10 16.0934 0 0
5:56 pm 17:56 Mostly Cloudy 56 13.3 47 8.3 72 72 NE 10 17 29.49 999 10 16.0934 0 0
6:56 pm 18:56 Clear 55 12.8 48 8.9 77 77 NE 12 19 29.5 999 10 16.0934 0 0
7:56 pm 19:56 Cloudy 56 13.3 49 9.4 77 77 NE 15 24 29.5 999 10 16.0934 0 0
8:56 pm 20:56 Cloudy 55 12.8 49 9.4 80 80 NE 10 17 29.5 999 10 16.0934 0 0.0254
9:56 pm 21:56 Clear 54 12.2 48 8.9 80 80 NE 16 26 29.48 998 10 16.0934 0 0.0254
10:56 pm 22:56 Partly Cloudy 53 11.7 48 8.9 83 83 NNE 17 28 29.47 998 10 16.0934 0 0
11:56 pm 23:56 Cloudy with Light Rain 53 11.7 48 8.9 83 83 NNE 14 22 29.46 998 10 16.0934 0 0.0254

Powered by AerisWeather